Weather History for Chester, CT

Change the Weather History Date:

Monday, April 8, 2013

  Actual Average (KHVN) Record (KHVN)
Temperature  
Mean Temperature 54 °F -  
Max Temperature 66 °F 53 °F 78 °F (1999)
Min Temperature 42 °F 37 °F 22 °F (1982)
Degree Days  
Heating Degree Days 11    
Growing Degree Days 4 (Base 50)    
Moisture  
Dew Point 41 °F    
Average Humidity 65    
Maximum Humidity 100    
Minimum Humidity 32    
Precipitation  
Precipitation 0.00 in - - ()
Sea Level Pressure  
Sea Level Pressure 30.04 in    
Wind  
Wind Speed 5 mph (SW)    
Max Wind Speed 12 mph    
Max Gust Speed -    
Visibility 9 miles    
Events      
Averages and records for this station are not official NWS values.
T = Trace of Precipitation, MM = Missing Value Source: NWS Daily Summary

Daily Weather History Graph

Daily Weather History Graph

Search for Another Location

Airport:

Trip Planner

Search our weather history database for the weather conditions in past years. The results will help you decide how hot, cold, wet, or windy it might be!

Date:

Astronomy

Apr. 08, 2013 Rise Set
Actual Time 6:21 AM EDT 7:23 PM EDT
Civil Twilight 5:52 AM EDT 7:51 PM EDT
Nautical Twilight 5:19 AM EDT 8:25 PM EDT
Astronomical Twilight 4:44 AM EDT 9:00 PM EDT
Moon 5:10 AM EDT (4/8) 5:53 PM EDT (4/8)
Length of Visible Light 13h 58m
Length of Day
13h 01m
Waning Crescent, 3% of the Moon is Illuminated
Apr 8
Waning Crescent
Apr 10
New
Apr 18
First Quarter
Apr 25
Full
May 2
Last Quarter

Hourly Weather History & Observations

Time (EDT) Temp. Windchill Dew Point Humidity Pressure Visibility Wind Dir Wind Speed Gust Speed Precip Events Conditions
12:15 AM 46.4 °F 42.4 °F 44.6 °F 93% 30.02 in 8.0 mi SSW 8.1 mph - N/A   Clear
12:35 AM 46.4 °F 44.3 °F 44.6 °F 93% 30.02 in 9.0 mi SW 4.6 mph - N/A   Clear
12:55 AM 46.4 °F 44.3 °F 44.6 °F 93% 30.02 in 8.0 mi SW 4.6 mph - N/A   Clear
1:15 AM 44.6 °F 41.4 °F 44.6 °F 100% 30.01 in 8.0 mi SSW 5.8 mph - N/A   Clear
1:35 AM 44.6 °F 42.2 °F 44.6 °F 100% 30.01 in 9.0 mi SSW 4.6 mph - N/A   Clear
1:55 AM 44.6 °F - 44.6 °F 100% 30.00 in 7.0 mi Calm Calm - N/A   Clear
2:15 AM 44.6 °F 43.1 °F 44.6 °F 100% 29.99 in 8.0 mi SSW 3.5 mph - N/A   Partly Cloudy
2:35 AM 44.6 °F 42.2 °F 44.6 °F 100% 29.99 in 8.0 mi SW 4.6 mph - N/A   Partly Cloudy
2:55 AM 44.6 °F 41.4 °F 44.6 °F 100% 29.99 in 9.0 mi SW 5.8 mph - N/A   Scattered Clouds
3:15 AM 46.4 °F 43.5 °F 44.6 °F 93% 29.98 in 8.0 mi WSW 5.8 mph - N/A   Scattered Clouds
3:35 AM 44.6 °F 43.1 °F 44.6 °F 100% 29.98 in 9.0 mi West 3.5 mph - N/A   Scattered Clouds
3:55 AM 44.6 °F 43.1 °F 44.6 °F 100% 29.98 in 7.0 mi WSW 3.5 mph - N/A   Scattered Clouds
4:15 AM 46.4 °F 45.2 °F 44.6 °F 93% 29.98 in 8.0 mi WSW 3.5 mph - N/A   Scattered Clouds
4:35 AM 44.6 °F 41.4 °F 44.6 °F 100% 29.99 in 8.0 mi West 5.8 mph - N/A   Scattered Clouds
4:55 AM 44.6 °F 43.1 °F 44.6 °F 100% 29.99 in 7.0 mi West 3.5 mph - N/A   Mostly Cloudy
5:15 AM 44.6 °F 43.1 °F 44.6 °F 100% 29.99 in 8.0 mi West 3.5 mph - N/A   Mostly Cloudy
5:35 AM 44.6 °F 43.1 °F 44.6 °F 100% 30.00 in 7.0 mi NW 3.5 mph - N/A   Partly Cloudy
5:55 AM 42.8 °F - 42.8 °F 100% 30.02 in 4.0 mi Calm Calm - N/A   Clear
6:15 AM 44.6 °F 42.2 °F 44.6 °F 100% 30.03 in 5.0 mi West 4.6 mph - N/A   Clear
6:35 AM 44.6 °F 43.1 °F 44.6 °F 100% 30.03 in 6.0 mi WNW 3.5 mph - N/A   Clear
6:55 AM 44.6 °F 43.1 °F 44.6 °F 100% 30.04 in 6.0 mi NW 3.5 mph - N/A   Clear
7:15 AM 48.2 °F - 44.6 °F 87% 30.04 in 7.0 mi Calm Calm - N/A   Clear
7:35 AM 48.2 °F - 44.6 °F 87% 30.04 in 8.0 mi North 4.6 mph - N/A   Clear
7:55 AM 51.8 °F - 42.8 °F 71% 30.04 in 9.0 mi NNE 5.8 mph - N/A   Clear
8:15 AM 51.8 °F - 39.2 °F 62% 30.05 in 10.0 mi North 3.5 mph - N/A   Clear
8:35 AM 51.8 °F - 39.2 °F 62% 30.05 in 9.0 mi NNW 8.1 mph - N/A   Clear
8:55 AM 53.6 °F - 39.2 °F 58% 30.06 in 10.0 mi NNW 8.1 mph - N/A   Clear
9:15 AM 53.6 °F - 37.4 °F 54% 30.06 in 9.0 mi North 6.9 mph - N/A   Clear
9:35 AM 55.4 °F - 37.4 °F 51% 30.07 in 10.0 mi North 9.2 mph - N/A   Clear
9:55 AM 57.2 °F - 37.4 °F 48% 30.07 in 10.0 mi North 8.1 mph - N/A   Clear
10:15 AM 57.2 °F - 37.4 °F 48% 30.06 in 10.0 mi NNW 9.2 mph - N/A   Clear
10:35 AM 59.0 °F - 37.4 °F 45% 30.06 in 10.0 mi North 9.2 mph - N/A   Clear
10:55 AM 60.8 °F - 37.4 °F 42% 30.06 in 10.0 mi NW 6.9 mph - N/A   Clear
11:15 AM 60.8 °F - 37.4 °F 42% 30.07 in 10.0 mi West 5.8 mph - N/A   Clear
11:35 AM 60.8 °F - 35.6 °F 39% 30.06 in 10.0 mi NW 4.6 mph - N/A   Clear
11:55 AM 62.6 °F - 35.6 °F 37% 30.06 in 9.0 mi NW 9.2 mph - N/A   Clear
12:15 PM 62.6 °F - 35.6 °F 37% 30.06 in 10.0 mi NNW 8.1 mph - N/A   Clear
12:35 PM 64.4 °F - 35.6 °F 34% 30.05 in 9.0 mi WNW 4.6 mph - N/A   Clear
12:55 PM 64.4 °F - 35.6 °F 34% 30.05 in 10.0 mi West 5.8 mph - N/A   Clear
1:15 PM 66.2 °F - 35.6 °F 32% 30.05 in 10.0 mi NNW 6.9 mph - N/A   Clear
1:35 PM 66.2 °F - 37.4 °F 35% 30.05 in 10.0 mi WSW 4.6 mph - N/A   Clear
1:55 PM 66.2 °F - 39.2 °F 37% 30.04 in 10.0 mi South 9.2 mph - N/A   Clear
2:15 PM 64.4 °F - 39.2 °F 40% 30.04 in 10.0 mi South 8.1 mph - N/A   Clear
2:35 PM 64.4 °F - 39.2 °F 40% 30.03 in 10.0 mi South 6.9 mph - N/A   Clear
2:55 PM 64.4 °F - 39.2 °F 40% 30.04 in 10.0 mi South 11.5 mph - N/A   Clear
3:15 PM 64.4 °F - 39.2 °F 40% 30.03 in 10.0 mi SW 5.8 mph - N/A   Clear
3:35 PM 64.4 °F - 37.4 °F 37% 30.03 in 10.0 mi SSE 5.8 mph - N/A   Clear
3:55 PM 64.4 °F - 37.4 °F 37% 30.03 in 10.0 mi South 8.1 mph - N/A   Clear
4:15 PM 64.4 °F - 37.4 °F 37% 30.03 in 10.0 mi South 8.1 mph - N/A   Clear
4:35 PM 64.4 °F - 37.4 °F 37% 30.03 in 10.0 mi SW 5.8 mph - N/A   Clear
4:55 PM 64.4 °F - 37.4 °F 37% 30.03 in 10.0 mi SW 4.6 mph - N/A   Clear
5:15 PM 64.4 °F - 37.4 °F 37% 30.03 in 10.0 mi SW 5.8 mph - N/A   Clear
5:35 PM 64.4 °F - 37.4 °F 37% 30.04 in 10.0 mi South 6.9 mph - N/A   Clear
5:55 PM 62.6 °F - 37.4 °F 39% 30.04 in 10.0 mi South 8.1 mph - N/A   Clear
6:15 PM 59.0 °F - 37.4 °F 45% 30.05 in 10.0 mi South 5.8 mph - N/A   Clear
6:35 PM 57.2 °F - 41.0 °F 55% 30.05 in 10.0 mi South 8.1 mph - N/A   Clear
6:55 PM 55.4 °F - 42.8 °F 63% 30.05 in 10.0 mi South 5.8 mph - N/A   Clear
7:15 PM 55.4 °F - 42.8 °F 63% 30.06 in 10.0 mi SSW 4.6 mph - N/A   Clear
7:35 PM 55.4 °F - 42.8 °F 63% 30.06 in 10.0 mi SW 3.5 mph - N/A   Clear
7:55 PM 55.4 °F - 41.0 °F 58% 30.07 in 10.0 mi SSW 3.5 mph - N/A   Clear
8:15 PM 53.6 °F - 41.0 °F 62% 30.07 in 10.0 mi SSW 3.5 mph - N/A   Clear
8:35 PM 53.6 °F - 41.0 °F 62% 30.07 in 10.0 mi SSW 4.6 mph - N/A   Clear
8:55 PM 53.6 °F - 41.0 °F 62% 30.08 in 10.0 mi SW 3.5 mph - N/A   Clear
9:15 PM 53.6 °F - 41.0 °F 62% 30.08 in 10.0 mi SW 4.6 mph - N/A   Partly Cloudy
9:35 PM 55.4 °F - 41.0 °F 58% 30.08 in 10.0 mi South 3.5 mph - N/A   Clear
9:55 PM 53.6 °F - 41.0 °F 62% 30.07 in 10.0 mi SE 3.5 mph - N/A   Partly Cloudy
10:15 PM 53.6 °F - 41.0 °F 62% 30.05 in 10.0 mi South 5.8 mph - N/A   Partly Cloudy
10:35 PM 53.6 °F - 41.0 °F 62% 30.06 in 10.0 mi South 6.9 mph - N/A   Clear
10:55 PM 51.8 °F - 42.8 °F 71% 30.06 in 10.0 mi South 8.1 mph - N/A   Partly Cloudy
11:15 PM 51.8 °F - 42.8 °F 71% 30.06 in 10.0 mi SSE 3.5 mph - N/A   Clear
11:35 PM 50.0 °F - 42.8 °F 76% 30.06 in 10.0 mi SSE 5.8 mph - N/A   Clear
11:55 PM 48.2 °F - 42.8 °F 82% 30.05 in 10.0 mi SE 6.9 mph - N/A   Partly Cloudy